SCP
0 0 0 0 -0 -0 -0 -0 0 -0 -0 -0 -0 -0 -1 -1 -1 -1 -0 -0 -0 0 0 1 1 1 1 1 1 0 0 0 0 0 0 0 0 0 0 0 0 0 0 0
0 0 0 0 0 -0 -0 0 0 -0 0 0 -1 -2 -2 -1 -1 -0 0 0 0 0 0 0 1 1 1 0 0 0 0 0 0 0 0 0 0 0 0 0 0 0 0 0
0 0 0 0 0 0 0 0 0 0 0 -0 -1 -2 -1 -1 -0 0 0 0 0 0 0 0 0 0 0 0 0 0 0 0 0 0 0 0 0 0 0 0 0 0 0 0
0 0 0 0 -0 0 0 0 0 0 -0 -0 -1 -0 -0 -0 0 0 0 0 0 0 0 0 0 0 0 0 0 0 0 0 0 0 0 0 0 0 0 0 0 0 0 0
0 0 0 0 0 0 0 0 -0 -1 -1 -2 -1 -1 0 0 0 0 0 0 0 0 0 0 0 0 0 0 0 0 0 0 0 0 0 0 0 0 0 0 0 0 0 0
0 0 0 0 0 0 0 1 1 -2 -2 -1 0 1 1 0 0 0 -0 0 0 0 0 0 0 0 0 0 0 0 0 0 0 0 0 0 0 0 -0 0 0 -0 0 0
0 0 0 0 0 0 0 0 0 -1 -1 -0 0 0 0 -0 0 0 0 0 0 0 0 0 0 0 0 0 0 0 0 0 0 0 0 0 -0 -0 -0 -0 -0 0 0 0
0 0 0 0 0 0 0 0 -0 0 0 1 -0 -0 -0 -0 -0 -0 0 0 0 0 0 0 0 0 0 0 0 0 0 0 0 0 0 0 0 0 0 0 0 0 0 0
0 0 0 0 0 0 0 0 1 0 0 0 -0 -0 0 -0 0 0 0 0 0 0 0 0 0 0 0 0 0 0 0 0 0 0 0 0 0 0 0 0 0 0 0 0
0 0 0 0 0 0 0 0 0 0 0 -1 -1 -0 -0 0 0 0 0 0 0 0 0 0 0 0 0 0 0 0 0 0 0 0 0 0 0 0 0 0 0 0 0 0
0 0 0 0 1 1 1 1 1 0 -0 -0 0 0 0 0 0 0 0 0 0 0 0 0 0 0 0 0 0 0 0 0 0 0 0 0 0 0 0 0 -0 0 -0 0
0 0 0 0 1 1 1 1 1 0 0 0 0 0 0 0 0 0 0 0 0 0 0 0 0 0 0 0 0 0 0 0 0 0 0 0 0 0 0 0 0 0 -0 -0
0 0 0 0 1 1 2 1 1 1 1 1 1 0 0 0 0 0 0 0 0 0 0 0 0 0 0 0 0 0 0 0 0 0 0 0 0 0 0 0 0 0 0 -0
2 0 0 1 1 1 1 2 2 1 1 0 0 0 0 0 0 0 0 0 0 0 0 0 0 0 0 0 0 0 0 0 0 0 0 0 0 0 0 0 0 0 0 -0
2 1 1 1 1 2 2 2 1 1 0 0 0 0 0 0 0 0 0 0 0 0 0 0 0 0 0 0 0 0 0 0 0 0 0 0 0 0 0 0 0 0 0 -0
1 1 2 2 3 3 2 2 1 1 1 0 0 0 0 0 0 0 0 0 0 0 0 0 0 0 0 0 0 0 0 0 0 0 0 0 0 0 0 0 0 0 0 -0
0 1 2 2 3 3 2 2 2 1 1 1 1 0 0 0 0 0 0 0 0 0 0 0 0 0 0 0 0 0 0 0 0 0 0 0 0 0 0 0 0 0 0 0
0 0 0 1 1 0 2 2 1 0 1 0 0 0 0 0 0 0 0 0 0 0 0 0 0 0 0 0 0 0 0 0 0 0 0 0 0 0 0 0 0 0 0 0
0 0 0 0 1 0 1 1 1 1 1 1 0 0 0 0 0 0 0 0 0 0 0 0 0 0 0 0 0 0 0 0 0 0 0 0 0 0 0 0 0 0 0 0
0 0 0 0 1 2 2 2 1 1 1 0 0 0 0 0 0 0 0 0 0 0 0 0 0 0 0 0 0 0 0 0 0 0 0 0 0 0 0 0 0 0 0 0
0 0 0 0 2 0 3 2 3 2 1 0 0 0 0 0 0 0 0 0 0 0 0 0 0 0 0 0 0 0 0 0 0 0 0 0 0 0 0 0 0 0 0 0
0 0 0 0 1 1 2 2 2 1 0 0 0 0 0 0 0 0 0 0 0 0 0 0 0 0 0 0 0 0 0 0 0 0 0 0 0 0 0 0 0 0 0 0
0 0 1 1 1 1 1 1 0 0 0 0 0 0 0 0 0 0 0 0 0 0 0 0 0 0 0 0 0 0 0 0 0 0 0 0 0 0 0 0 0 0 0 0
1 0 1 1 1 1 0 0 0 0 0 0 0 0 0 0 0 0 0 0 0 0 0 0 0 0 0 0 0 0 0 0 0 0 0 0 0 0 0 0 0 0 0 0
0 0 1 1 1 0 0 0 0 0 0 0 0 0 0 0 0 0 0 0 0 0 0 0 0 0 0 0 0 0 0 0 0 0 0 0 -0 0 0 0 0 0 0 0
0 0 1 1 1 0 0 0 0 0 0 0 0 0 0 0 0 0 0 0 0 0 0 0 0 0 0 0 0 0 0 0 0 -0 0 0 0 0 0 0 0 0 0 0
0 0 0 0 0 0 0 0 0 0 0 0 0 0 0 0 0 0 0 0 0 0 0 0 0 0 0 0 0 0 0 0 0 0 0 0 0 0 0 0 0 0 0 0
Wind_Speed_500mb
10 10 10 24 39 25 18 16 21 23 33 29 31 33 46 62 72 71 67 64 57 49 40 34 32 32 25 20 10 4 7 17 17 16 17 20 24 33 40 45 47 36 26 33
6 15 12 12 33 33 18 16 10 30 16 10 46 60 49 50 64 62 58 52 44 35 27 20 15 14 9 1 6 9 7 10 9 13 14 16 20 22 26 28 32 24 13 18
10 1 8 2 23 21 13 13 40 37 24 30 32 49 55 57 64 57 48 39 32 25 19 14 10 6 4 6 7 8 10 17 20 21 23 24 23 18 17 17 16 15 12 12
7 1 2 17 20 27 23 29 25 35 36 39 46 48 64 60 61 51 42 35 27 19 13 8 5 7 13 15 14 15 20 23 24 27 30 32 30 30 26 25 22 16 12 12
10 7 9 18 18 17 17 7 53 41 37 60 65 68 40 47 43 45 36 28 22 18 14 14 16 19 17 19 18 17 23 25 29 31 33 36 41 44 43 37 35 33 25 20
6 10 11 14 3 42 39 18 46 77 58 66 60 13 10 51 44 41 32 25 25 22 20 17 20 18 19 23 22 24 23 25 24 27 31 38 41 43 43 43 43 41 45 50
6 8 12 13 39 53 18 22 58 88 84 76 21 35 74 58 45 38 34 31 28 27 25 24 20 18 24 25 25 24 19 18 20 24 28 33 38 44 45 44 47 47 45 43
8 9 6 4 19 28 17 90 91 78 78 57 60 85 84 68 58 50 42 35 31 32 29 22 18 19 23 20 22 18 17 18 23 27 30 31 33 35 38 39 42 46 47 45
18 14 17 16 14 12 106 98 65 84 74 79 90 94 85 76 64 53 45 42 38 33 31 24 23 20 20 19 18 19 20 23 24 25 26 28 27 28 29 32 34 35 35 36
9 7 13 33 29 73 103 104 97 102 94 88 102 97 86 74 64 55 49 48 42 35 31 30 27 22 19 17 19 18 21 23 21 23 23 23 23 25 24 26 29 31 32 31
1 7 5 10 66 80 77 97 90 103 98 95 98 95 87 79 69 59 55 50 42 36 32 32 29 24 20 18 17 19 22 18 14 12 15 20 17 20 22 29 34 37 42 40
10 15 14 25 76 90 95 97 104 102 87 94 95 97 85 77 70 62 57 49 40 34 31 30 28 24 24 23 21 17 14 8 4 4 9 15 14 16 20 26 33 35 41 39
7 13 31 48 86 90 107 113 112 107 105 100 84 88 83 81 69 59 54 47 39 37 34 34 28 26 22 19 14 21 10 4 2 3 8 12 10 10 12 17 22 25 31 27
54 18 22 74 70 91 106 93 99 98 100 95 90 84 78 74 65 58 54 43 41 39 34 29 27 25 21 18 18 12 11 8 7 7 8 11 9 9 6 7 10 17 26 22
69 29 31 59 75 77 92 96 89 91 93 88 88 87 77 73 68 58 48 46 43 38 36 34 30 28 22 16 13 12 14 10 5 3 6 6 3 3 3 4 2 12 26 23
56 48 52 75 89 88 90 77 77 70 85 95 90 79 74 66 63 56 52 48 46 43 39 35 29 25 23 18 14 13 11 12 15 10 4 4 11 13 11 16 11 14 25 25
49 46 39 41 61 79 102 104 96 81 73 78 82 80 71 65 59 55 50 42 39 38 33 29 27 26 23 18 20 15 11 12 14 11 8 7 5 6 17 20 17 14 17 21
20 18 19 12 47 77 83 84 80 72 69 77 75 71 69 66 65 60 55 50 43 36 32 28 26 27 27 24 20 23 17 12 9 8 9 16 13 11 10 13 13 11 10 11
18 15 12 21 44 62 73 78 73 54 78 81 79 75 73 67 61 58 53 49 43 38 31 28 29 29 28 28 27 24 20 16 8 14 14 8 8 9 12 11 8 7 8 10
34 21 17 14 7 46 69 66 64 77 91 93 84 82 78 66 61 57 51 43 31 26 27 29 26 26 30 31 24 24 23 17 16 12 15 12 9 11 9 7 5 2 7 15
36 38 31 19 10 43 72 74 89 89 91 86 83 81 73 68 64 57 49 44 38 31 32 29 25 30 35 32 24 21 20 14 6 13 11 7 4 1 1 4 9 7 9 9
32 30 38 23 22 49 74 78 82 91 90 83 69 50 60 66 59 47 36 31 39 35 31 27 24 32 33 26 28 24 19 16 14 16 14 9 4 8 5 13 6 11 13 16
28 33 30 22 32 50 73 88 89 93 84 77 78 90 80 64 54 51 48 40 34 36 32 29 31 32 32 28 24 19 19 19 15 10 8 8 9 7 4 7 19 20 23 27
22 23 27 34 46 65 79 83 88 81 72 68 70 71 65 61 48 40 29 38 40 37 33 32 23 33 40 34 30 26 22 18 14 10 10 15 15 4 9 17 22 27 24 25
16 15 28 50 62 75 85 86 78 72 74 71 59 55 49 41 47 50 45 41 42 39 30 29 24 41 43 34 28 23 19 18 12 12 8 14 12 11 14 19 27 24 27 27
8 23 40 50 61 71 90 86 81 78 75 74 65 51 44 47 42 46 46 40 40 32 25 20 34 42 35 30 27 19 16 20 17 14 9 11 18 18 18 18 22 26 26 27
18 27 48 64 74 87 85 79 82 86 79 73 69 63 65 57 45 42 40 39 35 28 28 30 33 38 34 28 20 18 22 18 14 15 22 23 18 15 18 20 20 27 33 33
Wind_Direction_500mb
214 262 171 166 165 164 174 175 156 182 143 152 134 128 122 117 118 118 118 118 119 121 123 127 137 156 172 192 210 206 199 217 247 262 282 290 295 297 298 309 320 332 287 269
175 291 72 142 172 175 194 152 145 148 124 153 120 116 114 116 115 114 120 122 125 127 127 127 134 140 152 202 1 22 29 55 32 358 340 337 338 352 348 342 340 343 347 287
221 155 88 105 195 211 153 139 141 153 151 143 128 124 127 124 126 129 128 129 132 132 132 122 107 87 47 30 34 17 35 51 44 36 29 26 24 12 359 356 343 332 308 282
175 127 106 245 195 187 146 154 119 110 139 136 123 122 132 137 137 136 137 136 133 128 123 111 96 83 92 90 82 70 65 59 48 39 43 42 37 33 31 29 32 26 358 320
132 179 281 310 169 138 138 138 135 127 125 118 118 115 117 141 140 137 139 139 139 138 127 113 107 100 98 95 88 78 68 61 52 47 45 42 42 43 44 46 49 48 46 37
107 124 201 243 292 137 113 116 150 136 140 141 140 119 189 151 149 144 145 143 146 142 134 125 104 96 104 103 95 79 66 59 52 53 52 51 51 54 56 58 55 50 59 64
140 158 268 244 151 144 101 186 170 150 155 156 156 162 157 160 157 160 157 153 148 143 134 123 111 115 111 105 90 75 56 54 66 65 61 58 60 62 63 63 62 59 59 60
102 112 261 175 180 164 185 159 167 161 159 155 148 150 157 164 163 166 163 160 158 149 138 126 122 132 117 108 91 78 71 83 83 70 63 61 62 63 65 64 61 63 63 64
179 204 215 201 203 161 151 156 166 156 164 163 151 154 163 163 165 169 170 164 162 155 144 138 143 141 129 117 102 91 91 94 88 73 67 61 53 53 53 53 55 57 55 55
100 290 226 196 176 158 156 162 166 169 170 166 158 163 166 164 166 169 173 167 164 162 154 144 143 140 134 125 121 110 104 101 94 75 73 54 45 45 40 47 46 46 47 44
225 282 65 143 156 156 160 161 164 169 171 168 166 168 169 166 167 168 166 166 167 164 156 148 144 142 131 130 123 127 122 107 89 63 52 35 37 46 54 56 55 52 48 40
214 244 181 189 156 163 156 160 166 166 162 172 172 170 172 168 167 166 167 165 167 167 162 155 152 150 143 132 130 133 123 108 44 20 22 15 36 57 72 65 68 62 45 39
301 301 235 182 164 165 166 167 171 173 171 167 169 171 170 166 168 168 168 170 175 170 164 165 163 157 162 168 163 173 156 144 88 80 41 62 62 77 72 86 72 64 48 43
37 124 112 158 166 165 167 160 164 166 170 172 169 169 167 168 166 169 172 174 174 170 165 167 168 174 164 177 197 184 178 173 161 88 52 46 87 88 79 44 74 59 45 46
28 56 111 163 157 149 152 157 157 160 166 166 170 169 171 167 168 170 173 173 171 169 173 179 174 174 173 178 184 180 181 199 187 48 39 38 85 310 216 228 135 71 60 61
40 73 103 128 141 143 146 142 142 145 161 168 169 170 170 169 168 171 171 173 175 176 180 187 187 182 183 191 202 184 177 185 166 165 168 137 96 114 99 125 139 97 73 54
40 47 83 101 123 139 157 166 162 157 162 166 171 169 169 170 169 167 169 177 188 187 185 191 199 200 198 201 184 172 192 200 174 172 178 200 157 97 89 98 101 87 62 30
3 33 44 97 159 153 150 154 158 165 178 177 180 175 171 174 173 174 177 179 186 190 196 204 209 203 198 186 184 173 171 186 196 252 180 132 114 93 89 92 84 54 8 14
292 8 5 68 170 167 168 175 186 191 174 177 184 181 180 178 180 178 178 185 195 200 202 195 191 190 190 190 194 190 201 186 181 153 151 169 132 69 83 109 78 35 7 13
283 279 292 319 333 208 208 199 190 180 180 185 185 183 178 177 181 181 185 192 201 202 196 193 193 194 191 188 187 168 180 169 163 187 153 140 123 129 126 80 359 330 311 329
270 269 280 299 271 212 192 195 183 184 184 185 185 181 178 178 182 182 181 183 186 187 185 185 188 183 177 184 173 167 161 163 160 168 160 157 198 93 58 328 308 294 320 294
283 268 260 269 236 199 198 194 190 188 183 178 175 185 182 180 180 182 187 187 181 175 185 178 172 175 178 172 171 171 169 158 168 170 167 170 179 288 252 300 297 322 319 315
287 258 258 233 206 194 187 193 196 191 183 183 177 186 189 180 183 182 179 182 192 187 190 187 176 176 185 182 180 182 182 181 180 193 219 224 274 200 316 322 331 323 308 309
317 316 245 213 194 186 177 179 180 180 184 187 185 189 184 176 179 187 190 186 191 196 190 184 188 192 183 173 172 170 180 198 218 256 261 256 193 253 279 305 306 296 294 302
306 291 233 200 186 181 177 174 180 183 183 181 179 183 194 191 192 183 192 189 188 191 193 194 202 190 191 200 199 198 213 233 239 166 152 169 199 272 290 281 289 286 293 298
249 218 200 195 192 186 177 180 181 185 180 172 177 181 193 201 195 192 186 190 188 191 188 194 191 190 193 188 189 200 229 181 180 198 233 279 279 281 272 297 304 299 298 300
198 198 185 176 180 179 176 183 180 177 176 177 177 183 190 186 181 185 181 176 182 187 185 175 184 192 197 210 210 182 171 184 214 250 268 280 248 258 307 313 310 314 310 310
Wind_Speed_850mb
10 10 10 24 39 25 18 16 21 23 33 29 31 33 46 62 72 71 67 64 57 49 40 34 32 32 25 20 10 4 7 17 17 16 17 20 24 33 40 45 47 36 26 33
6 15 12 12 33 33 18 16 10 30 16 10 46 60 49 50 64 62 58 52 44 35 27 20 15 14 9 1 6 9 7 10 9 13 14 16 20 22 26 28 32 24 13 18
10 1 8 2 23 21 13 13 40 37 24 30 32 49 55 57 64 57 48 39 32 25 19 14 10 6 4 6 7 8 10 17 20 21 23 24 23 18 17 17 16 15 12 12
7 1 2 17 20 27 23 29 25 35 36 39 46 48 64 60 61 51 42 35 27 19 13 8 5 7 13 15 14 15 20 23 24 27 30 32 30 30 26 25 22 16 12 12
10 7 9 18 18 17 17 7 53 41 37 60 65 68 40 47 43 45 36 28 22 18 14 14 16 19 17 19 18 17 23 25 29 31 33 36 41 44 43 37 35 33 25 20
6 10 11 14 3 42 39 18 46 77 58 66 60 13 10 51 44 41 32 25 25 22 20 17 20 18 19 23 22 24 23 25 24 27 31 38 41 43 43 43 43 41 45 50
6 8 12 13 39 53 18 22 58 88 84 76 21 35 74 58 45 38 34 31 28 27 25 24 20 18 24 25 25 24 19 18 20 24 28 33 38 44 45 44 47 47 45 43
8 9 6 4 19 28 17 90 91 78 78 57 60 85 84 68 58 50 42 35 31 32 29 22 18 19 23 20 22 18 17 18 23 27 30 31 33 35 38 39 42 46 47 45
18 14 17 16 14 12 106 98 65 84 74 79 90 94 85 76 64 53 45 42 38 33 31 24 23 20 20 19 18 19 20 23 24 25 26 28 27 28 29 32 34 35 35 36
9 7 13 33 29 73 103 104 97 102 94 88 102 97 86 74 64 55 49 48 42 35 31 30 27 22 19 17 19 18 21 23 21 23 23 23 23 25 24 26 29 31 32 31
1 7 5 10 66 80 77 97 90 103 98 95 98 95 87 79 69 59 55 50 42 36 32 32 29 24 20 18 17 19 22 18 14 12 15 20 17 20 22 29 34 37 42 40
10 15 14 25 76 90 95 97 104 102 87 94 95 97 85 77 70 62 57 49 40 34 31 30 28 24 24 23 21 17 14 8 4 4 9 15 14 16 20 26 33 35 41 39
7 13 31 48 86 90 107 113 112 107 105 100 84 88 83 81 69 59 54 47 39 37 34 34 28 26 22 19 14 21 10 4 2 3 8 12 10 10 12 17 22 25 31 27
54 18 22 74 70 91 106 93 99 98 100 95 90 84 78 74 65 58 54 43 41 39 34 29 27 25 21 18 18 12 11 8 7 7 8 11 9 9 6 7 10 17 26 22
69 29 31 59 75 77 92 96 89 91 93 88 88 87 77 73 68 58 48 46 43 38 36 34 30 28 22 16 13 12 14 10 5 3 6 6 3 3 3 4 2 12 26 23
56 48 52 75 89 88 90 77 77 70 85 95 90 79 74 66 63 56 52 48 46 43 39 35 29 25 23 18 14 13 11 12 15 10 4 4 11 13 11 16 11 14 25 25
49 46 39 41 61 79 102 104 96 81 73 78 82 80 71 65 59 55 50 42 39 38 33 29 27 26 23 18 20 15 11 12 14 11 8 7 5 6 17 20 17 14 17 21
20 18 19 12 47 77 83 84 80 72 69 77 75 71 69 66 65 60 55 50 43 36 32 28 26 27 27 24 20 23 17 12 9 8 9 16 13 11 10 13 13 11 10 11
18 15 12 21 44 62 73 78 73 54 78 81 79 75 73 67 61 58 53 49 43 38 31 28 29 29 28 28 27 24 20 16 8 14 14 8 8 9 12 11 8 7 8 10
34 21 17 14 7 46 69 66 64 77 91 93 84 82 78 66 61 57 51 43 31 26 27 29 26 26 30 31 24 24 23 17 16 12 15 12 9 11 9 7 5 2 7 15
36 38 31 19 10 43 72 74 89 89 91 86 83 81 73 68 64 57 49 44 38 31 32 29 25 30 35 32 24 21 20 14 6 13 11 7 4 1 1 4 9 7 9 9
32 30 38 23 22 49 74 78 82 91 90 83 69 50 60 66 59 47 36 31 39 35 31 27 24 32 33 26 28 24 19 16 14 16 14 9 4 8 5 13 6 11 13 16
28 33 30 22 32 50 73 88 89 93 84 77 78 90 80 64 54 51 48 40 34 36 32 29 31 32 32 28 24 19 19 19 15 10 8 8 9 7 4 7 19 20 23 27
22 23 27 34 46 65 79 83 88 81 72 68 70 71 65 61 48 40 29 38 40 37 33 32 23 33 40 34 30 26 22 18 14 10 10 15 15 4 9 17 22 27 24 25
16 15 28 50 62 75 85 86 78 72 74 71 59 55 49 41 47 50 45 41 42 39 30 29 24 41 43 34 28 23 19 18 12 12 8 14 12 11 14 19 27 24 27 27
8 23 40 50 61 71 90 86 81 78 75 74 65 51 44 47 42 46 46 40 40 32 25 20 34 42 35 30 27 19 16 20 17 14 9 11 18 18 18 18 22 26 26 27
18 27 48 64 74 87 85 79 82 86 79 73 69 63 65 57 45 42 40 39 35 28 28 30 33 38 34 28 20 18 22 18 14 15 22 23 18 15 18 20 20 27 33 33
Wind_Direction_850mb
214 262 171 166 165 164 174 175 156 182 143 152 134 128 122 117 118 118 118 118 119 121 123 127 137 156 172 192 210 206 199 217 247 262 282 290 295 297 298 309 320 332 287 269
175 291 72 142 172 175 194 152 145 148 124 153 120 116 114 116 115 114 120 122 125 127 127 127 134 140 152 202 1 22 29 55 32 358 340 337 338 352 348 342 340 343 347 287
221 155 88 105 195 211 153 139 141 153 151 143 128 124 127 124 126 129 128 129 132 132 132 122 107 87 47 30 34 17 35 51 44 36 29 26 24 12 359 356 343 332 308 282
175 127 106 245 195 187 146 154 119 110 139 136 123 122 132 137 137 136 137 136 133 128 123 111 96 83 92 90 82 70 65 59 48 39 43 42 37 33 31 29 32 26 358 320
132 179 281 310 169 138 138 138 135 127 125 118 118 115 117 141 140 137 139 139 139 138 127 113 107 100 98 95 88 78 68 61 52 47 45 42 42 43 44 46 49 48 46 37
107 124 201 243 292 137 113 116 150 136 140 141 140 119 189 151 149 144 145 143 146 142 134 125 104 96 104 103 95 79 66 59 52 53 52 51 51 54 56 58 55 50 59 64
140 158 268 244 151 144 101 186 170 150 155 156 156 162 157 160 157 160 157 153 148 143 134 123 111 115 111 105 90 75 56 54 66 65 61 58 60 62 63 63 62 59 59 60
102 112 261 175 180 164 185 159 167 161 159 155 148 150 157 164 163 166 163 160 158 149 138 126 122 132 117 108 91 78 71 83 83 70 63 61 62 63 65 64 61 63 63 64
179 204 215 201 203 161 151 156 166 156 164 163 151 154 163 163 165 169 170 164 162 155 144 138 143 141 129 117 102 91 91 94 88 73 67 61 53 53 53 53 55 57 55 55
100 290 226 196 176 158 156 162 166 169 170 166 158 163 166 164 166 169 173 167 164 162 154 144 143 140 134 125 121 110 104 101 94 75 73 54 45 45 40 47 46 46 47 44
225 282 65 143 156 156 160 161 164 169 171 168 166 168 169 166 167 168 166 166 167 164 156 148 144 142 131 130 123 127 122 107 89 63 52 35 37 46 54 56 55 52 48 40
214 244 181 189 156 163 156 160 166 166 162 172 172 170 172 168 167 166 167 165 167 167 162 155 152 150 143 132 130 133 123 108 44 20 22 15 36 57 72 65 68 62 45 39
301 301 235 182 164 165 166 167 171 173 171 167 169 171 170 166 168 168 168 170 175 170 164 165 163 157 162 168 163 173 156 144 88 80 41 62 62 77 72 86 72 64 48 43
37 124 112 158 166 165 167 160 164 166 170 172 169 169 167 168 166 169 172 174 174 170 165 167 168 174 164 177 197 184 178 173 161 88 52 46 87 88 79 44 74 59 45 46
28 56 111 163 157 149 152 157 157 160 166 166 170 169 171 167 168 170 173 173 171 169 173 179 174 174 173 178 184 180 181 199 187 48 39 38 85 310 216 228 135 71 60 61
40 73 103 128 141 143 146 142 142 145 161 168 169 170 170 169 168 171 171 173 175 176 180 187 187 182 183 191 202 184 177 185 166 165 168 137 96 114 99 125 139 97 73 54
40 47 83 101 123 139 157 166 162 157 162 166 171 169 169 170 169 167 169 177 188 187 185 191 199 200 198 201 184 172 192 200 174 172 178 200 157 97 89 98 101 87 62 30
3 33 44 97 159 153 150 154 158 165 178 177 180 175 171 174 173 174 177 179 186 190 196 204 209 203 198 186 184 173 171 186 196 252 180 132 114 93 89 92 84 54 8 14
292 8 5 68 170 167 168 175 186 191 174 177 184 181 180 178 180 178 178 185 195 200 202 195 191 190 190 190 194 190 201 186 181 153 151 169 132 69 83 109 78 35 7 13
283 279 292 319 333 208 208 199 190 180 180 185 185 183 178 177 181 181 185 192 201 202 196 193 193 194 191 188 187 168 180 169 163 187 153 140 123 129 126 80 359 330 311 329
270 269 280 299 271 212 192 195 183 184 184 185 185 181 178 178 182 182 181 183 186 187 185 185 188 183 177 184 173 167 161 163 160 168 160 157 198 93 58 328 308 294 320 294
283 268 260 269 236 199 198 194 190 188 183 178 175 185 182 180 180 182 187 187 181 175 185 178 172 175 178 172 171 171 169 158 168 170 167 170 179 288 252 300 297 322 319 315
287 258 258 233 206 194 187 193 196 191 183 183 177 186 189 180 183 182 179 182 192 187 190 187 176 176 185 182 180 182 182 181 180 193 219 224 274 200 316 322 331 323 308 309
317 316 245 213 194 186 177 179 180 180 184 187 185 189 184 176 179 187 190 186 191 196 190 184 188 192 183 173 172 170 180 198 218 256 261 256 193 253 279 305 306 296 294 302
306 291 233 200 186 181 177 174 180 183 183 181 179 183 194 191 192 183 192 189 188 191 193 194 202 190 191 200 199 198 213 233 239 166 152 169 199 272 290 281 289 286 293 298
249 218 200 195 192 186 177 180 181 185 180 172 177 181 193 201 195 192 186 190 188 191 188 194 191 190 193 188 189 200 229 181 180 198 233 279 279 281 272 297 304 299 298 300
198 198 185 176 180 179 176 183 180 177 176 177 177 183 190 186 181 185 181 176 182 187 185 175 184 192 197 210 210 182 171 184 214 250 268 280 248 258 307 313 310 314 310 310